Terminal Aerodrome Forecast
Issued by NWS

Home | Current Version | Previous Version | Text Only | Print | Product List | Glossary On
Versions: 1 2 3 4 5 6 7 8 9 10 11 12 13 14 15 16 17 18
000
FTUS43 KABR 112300
TAFATY
TAF
KATY 112326Z 1200/1224 35012KT P6SM BKN050
     FM120100 02005KT P6SM BKN150
     FM121200 03006KT P6SM -SHRA VCTS SCT040CB OVC070
     FM121600 03010KT P6SM -RA BKN035
     FM122100 01010KT P6SM OVC035=

USA.gov is the U.S. government's official web portal to all federal, state and local government web resources and services.